CW7979 Weather Reports


time (UTC)temp
F
wind
direction
speed
knots
gust
knots
rain 1hr
in
rain 24hr
in
rain mn
in
humidity
%
barometer
mb
20260507160513 56 15 0.0 3.5 0.00 0.04 0.04 79 1012.8
20260507160010 56 29 0.0 0.9 0.00 0.04 0.04 80 1012.6
20260507155505 56 30 2.6 3.5 0.00 0.04 0.04 80 1012.8
20260507155003 56 99 0.0 2.6 0.00 0.04 0.04 81 1012.7
20260507154459 56 30 3.5 4.3 0.00 0.04 0.04 81 1012.7
20260507153956 56 116 2.6 4.3 0.00 0.04 0.04 81 1012.6
20260507153453 56 66 0.9 3.5 0.00 0.04 0.04 82 1012.6
20260507152949 56 75 0.0 4.3 0.00 0.04 0.04 81 1012.3
20260507152445 56 84 2.6 2.6 0.00 0.04 0.04 79 1012.7
20260507151941 56 14 2.6 2.6 0.00 0.04 0.04 77 1012.7
20260507151438 56 14 1.7 3.5 0.00 0.04 0.04 77 1012.8
20260507150935 56 66 1.7 5.2 0.00 0.04 0.04 77 1012.8
20260507150432 56 66 0.0 4.3 0.00 0.04 0.04 77 1012.6
20260507145928 57 51 1.7 3.5 0.00 0.04 0.04 77 1012.4
20260507145424 56 105 3.5 5.2 0.00 0.04 0.04 76 1012.3
20260507144921 57 0 0.9 2.6 0.00 0.04 0.04 77 1012.2
20260507144418 57 66 0.0 3.5 0.00 0.04 0.04 79 1012.3
20260507143915 57 240 0.9 4.3 0.00 0.04 0.04 80 1012.5
20260507143412 57 38 1.7 3.5 0.00 0.04 0.04 81 1012.4
20260507142909 57 77 1.7 4.3 0.00 0.04 0.04 82 1012.6
20260507142404 57 90 0.0 4.3 0.00 0.04 0.04 82 1012.5
20260507141902 57 25 2.6 6.1 0.00 0.04 0.04 82 1012.5
20260507141358 57 36 1.7 3.5 0.00 0.04 0.04 84 1012.6
20260507140854 57 28 1.7 2.6 0.00 0.04 0.04 84 1012.6
20260507140351 57 60 0.9 5.2 0.00 0.04 0.04 84 1012.6
20260507135849 57 28 1.7 4.3 0.00 0.04 0.04 85 1012.3
20260507135346 57 160 0.0 1.7 0.00 0.04 0.04 84 1012.7
20260507134843 57 40 0.0 3.5 0.00 0.04 0.04 83 1012.9
20260507134339 57 47 2.6 4.3 0.00 0.04 0.04 83 1012.6
20260507133835 57 135 4.3 7.0 0.00 0.04 0.04 83 1012.4
20260507133331 57 56 1.7 4.3 0.00 0.04 0.04 84 1012.2
20260507132830 57 99 6.1 9.6 0.00 0.04 0.04 82 1012.3
20260507132326 57 39 2.6 3.5 0.00 0.04 0.04 84 1012.3
20260507131823 57 34 6.1 7.0 0.00 0.04 0.04 85 1012.6
20260507131320 57 36 3.5 6.1 0.00 0.04 0.04 84 1012.3
20260507130816 57 65 1.7 6.1 0.00 0.04 0.04 84 1012.2
20260507130314 56 71 0.0 4.3 0.00 0.04 0.04 86 1012.1
20260507125813 57 34 2.6 5.2 0.00 0.04 0.04 88 1012.2
20260507125310 57 60 2.6 2.6 0.00 0.04 0.04 89 1012.6
20260507124807 56 37 3.5 6.1 0.00 0.04 0.04 91 1012.2
20260507124303 57 39 2.6 3.5 0.00 0.04 0.04 92 1012.6
20260507123802 57 45 1.7 3.5 0.00 0.04 0.04 93 1012.4
20260507123259 57 345 0.9 2.6 0.00 0.04 0.04 94 1012.2
20260507122754 57 26 0.0 2.6 0.00 0.04 0.04 94 1012.1
20260507122250 57 95 1.7 2.6 0.00 0.04 0.04 94 1011.6
20260507121746 57 26 0.0 2.6 0.00 0.04 0.04 94 1011.9
20260507121242 57 99 3.5 3.5 0.00 0.04 0.04 95 1012.0
20260507120738 57 8 0.0 2.6 0.00 0.04 0.04 95 1012.1
20260507120235 57 78 0.9 1.7 0.00 0.04 0.04 95 1011.8
20260507115731 57 59 1.7 1.7 0.00 0.04 0.04 95 1012.1
20260507115227 56 81 0.0 2.6 0.00 0.04 0.04 96 1012.3
20260507114723 57 117 0.0 1.7 0.00 0.04 0.04 96 1012.2
20260507114221 57 7 0.0 1.7 0.00 0.04 0.04 96 1012.3
20260507113718 56 114 0.0 1.7 0.00 0.04 0.04 96 1012.1
20260507113215 56 123 0.0 1.7 0.00 0.04 0.04 96 1011.9
20260507112712 56 41 1.7 2.6 0.00 0.04 0.04 96 1011.7
20260507112209 56 99 0.0 2.6 0.00 0.04 0.04 97 1011.6
20260507111707 56 69 0.0 1.7 0.00 0.04 0.04 97 1011.8
20260507111203 56 23 0.0 1.7 0.00 0.04 0.04 97 1012.0
20260507110659 56 60 0.0 1.7 0.00 0.04 0.04 97 1012.0
20260507110156 56 29 0.0 2.6 0.00 0.04 0.04 97 1011.9
20260507105653 56 105 0.0 0.9 0.00 0.04 0.04 97 1011.5
20260507105149 56 90 1.7 2.6 0.00 0.04 0.04 97 1011.3
20260507104647 56 40 1.7 2.6 0.00 0.04 0.04 98 1011.6
20260507104143 56 248 0.0 0.0 0.00 0.04 0.04 98 1011.6
20260507103639 56 81 0.0 0.0 0.00 0.04 0.04 98 1011.3
20260507103136 56 184 1.7 1.7 0.00 0.04 0.04 97 1011.3
20260507102632 56 54 0.0 2.6 0.02 0.04 0.04 97 1011.1
20260507102128 56 32 2.6 4.3 0.02 0.04 0.04 97 1011.0
20260507101624 56 68 0.0 3.5 0.02 0.04 0.04 97 1011.0
20260507101120 57 96 0.0 3.5 0.02 0.04 0.04 97 1011.3
20260507100618 57 41 1.7 2.6 0.02 0.03 0.03 97 1011.4
20260507100116 57 99 1.7 1.7 0.02 0.03 0.03 97 1011.6
20260507095614 57 33 1.7 2.6 0.00 0.03 0.03 96 1011.5
20260507095110 57 20 0.0 1.7 0.02 0.03 0.03 97 1011.0
20260507094606 57 0 0.9 2.6 0.02 0.03 0.03 97 1011.3
20260507094103 57 7 0.0 1.7 0.00 0.02 0.02 97 1011.4
20260507093601 58 0 0.0 1.7 0.00 0.02 0.02 96 1011.2
20260507093059 58 45 1.7 2.6 0.02 0.02 0.02 96 1011.2
20260507092555 58 26 1.7 3.5 0.02 0.02 0.02 96 1011.1
20260507092052 58 10 1.7 2.6 0.02 0.02 0.02 96 1011.5
20260507091549 59 37 2.6 2.6 0.07 0.02 0.02 95 1011.3
20260507091045 59 195 0.9 1.7 0.07 0.02 0.02 95 1011.3
20260507090541 59 210 0.0 3.5 0.02 0.01 0.01 94 1011.6
20260507090038 59 180 0.0 1.7 0.00 0.00 0.00 94 1011.5
20260507085535 59 352 0.0 3.5 0.00 0.00 0.00 94 1011.1
20260507085032 59 228 0.0 3.5 0.00 0.00 0.00 94 1011.1
20260507084528 59 270 0.0 6.1 0.00 0.00 0.00 94 1010.8
20260507084025 60 100 2.6 7.8 0.02 0.00 0.00 94 1010.6
20260507083521 60 41 1.7 2.6 0.02 0.00 0.00 93 1010.6
20260507083019 61 21 1.7 2.6 0.00 0.00 0.00 93 1010.6
20260507082515 61 34 3.5 5.2 0.00 0.00 0.00 92 1010.9
20260507082011 62 11 2.6 2.6 0.00 0.00 0.00 92 1010.8
20260507081507 63 18 1.7 4.3 0.00 0.00 0.00 93 1010.3
20260507081004 64 17 3.5 7.0 0.00 0.00 0.00 93 1010.3
20260507080500 66 19 1.7 6.1 0.00 0.00 0.00 93 1010.0
20260507075955 67 12 0.0 2.6 0.00 0.00 0.00 92 1009.8
20260507075452 68 21 2.6 2.6 0.00 0.00 0.00 91 1009.7
20260507074949 67 195 0.0 0.9 0.00 0.00 0.00 91 1010.0
20260507074446 67 180 0.0 0.9 0.00 0.00 0.00 91 1009.8
20260507073944 67 191 1.7 1.7 0.00 0.00 0.00 90 1009.9
20260507073440 67 14 0.0 0.9 0.00 0.00 0.00 90 1009.7
20260507072936 68 180 0.9 0.9 0.00 0.00 0.00 90 1009.8
20260507072434 68 180 0.0 0.9 0.00 0.00 0.00 89 1009.9
20260507071931 68 148 0.0 1.7 0.00 0.00 0.00 89 1010.2
20260507071428 68 270 0.0 1.7 0.00 0.00 0.00 88 1010.1
20260507070925 69 342 0.0 3.5 0.00 0.00 0.00 87 1010.0
20260507070423 69 287 0.0 4.3 0.00 0.00 0.00 87 1009.6
20260507065919 69 319 1.7 3.5 0.00 0.00 0.00 87 1009.6
20260507065416 69 239 1.7 5.2 0.00 0.00 0.00 87 1009.7
20260507064913 69 90 0.0 5.2 0.00 0.00 0.00 87 1009.3
20260507064411 69 331 0.9 4.3 0.00 0.00 0.00 87 1009.3
20260507063909 69 290 2.6 3.5 0.00 0.00 0.00 87 1009.2
20260507063406 69 239 2.6 3.5 0.00 0.00 0.00 87 1009.1
20260507062902 69 201 1.7 1.7 0.00 0.00 0.00 88 1009.0
20260507062359 69 253 2.6 4.3 0.00 0.00 0.00 87 1009.1
20260507061857 69 263 0.9 1.7 0.00 0.00 0.00 88 1009.0
20260507061355 69 170 1.7 4.3 0.00 0.00 0.00 87 1009.0
20260507060853 69 180 0.0 2.6 0.00 0.00 0.00 88 1008.9
20260507060349 69 255 1.7 3.5 0.00 0.00 0.00 88 1009.1
20260507055846 69 243 0.9 1.7 0.00 0.00 0.00 88 1009.2
20260507055341 69 185 0.0 2.6 0.00 0.00 0.00 88 1009.2
20260507054838 69 270 0.0 1.7 0.00 0.00 0.00 88 1009.2
20260507054334 69 192 0.0 1.7 0.00 0.00 0.00 87 1009.2
20260507053832 69 270 0.0 1.7 0.00 0.00 0.00 86 1009.3
20260507053329 69 209 0.0 3.5 0.00 0.00 0.00 86 1009.4
20260507052828 69 257 1.7 2.6 0.00 0.00 0.00 86 1009.5
20260507052324 69 189 1.7 2.6 0.00 0.00 0.00 87 1009.6
20260507051822 69 251 1.7 3.5 0.00 0.00 0.00 87 1009.8
20260507051320 69 215 0.0 2.6 0.00 0.00 0.00 87 1010.0
20260507050816 69 220 2.6 2.6 0.00 0.00 0.00 87 1010.3
20260507050312 69 215 0.0 2.6 0.00 0.00 0.00 87 1010.3
20260507045810 69 270 0.0 3.5 0.00 0.00 0.00 88 1010.5
20260507045307 69 270 0.0 2.6 0.00 0.00 0.00 87 1010.5
20260507044803 69 124 1.7 1.7 0.00 0.00 0.00 87 1010.5
20260507044259 69 254 0.0 6.1 0.00 0.00 0.00 87 1010.5
20260507043755 69 270 1.7 2.6 0.00 0.00 0.00 87 1010.5
20260507043253 69 180 0.0 4.3 0.00 0.00 0.00 88 1010.6
20260507042749 69 217 1.7 5.2 0.00 0.00 0.00 88 1010.4
20260507042244 68 255 0.0 2.6 0.00 0.00 0.00 88 1010.8
20260507041742 69 229 1.7 3.5 0.00 0.00 0.00 87 1010.3
20260507041238 69 209 0.0 2.6 0.00 0.00 0.00 87 1010.2
20260507040735 69 187 0.0 2.6 0.00 0.00 0.00 87 1010.5
20260507040231 69 281 0.0 2.6 0.00 0.00 0.00 87 1010.5
20260507035727 69 261 0.0 2.6 0.00 0.13 0.13 87 1010.5
20260507035223 69 254 0.0 3.5 0.00 0.13 0.13 87 1010.5
20260507034721 69 210 0.0 2.6 0.00 0.13 0.13 87 1010.6
20260507034217 69 248 2.6 4.3 0.00 0.13 0.13 87 1010.6
20260507033716 69 240 0.0 4.3 0.00 0.13 0.13 87 1010.2
20260507033213 68 270 0.0 3.5 0.00 0.13 0.13 88 1010.2
20260507032710 68 180 0.0 1.7 0.00 0.13 0.13 89 1010.0
20260507032206 68 243 0.0 4.3 0.00 0.13 0.13 89 1010.1
20260507031703 68 253 1.7 4.3 0.00 0.13 0.13 90 1010.0
20260507031159 67 0 0.0 2.6 0.00 0.13 0.13 91 1010.0
20260507030656 67 0 0.0 1.7 0.00 0.13 0.13 91 1010.0
20260507030154 67 257 0.0 1.7 0.00 0.13 0.13 91 1009.9
20260507025651 67 180 0.0 2.6 0.00 0.13 0.13 91 1010.1
20260507025148 67 352 0.0 0.9 0.00 0.13 0.13 92 1010.1
20260507024646 67 84 0.9 2.6 0.00 0.13 0.13 92 1009.9
20260507024143 67 270 0.0 1.7 0.00 0.13 0.13 92 1010.2
20260507023638 67 234 0.0 3.5 0.00 0.13 0.13 92 1010.2
20260507023136 67 84 0.0 2.6 0.00 0.13 0.13 92 1010.3
20260507022633 66 188 0.0 1.7 0.00 0.13 0.13 92 1010.4
20260507022128 66 102 0.0 2.6 0.00 0.13 0.13 92 1010.2
20260507021625 66 320 0.0 1.7 0.00 0.13 0.13 93 1010.5
20260507021120 66 180 0.9 1.7 0.00 0.13 0.13 93 1010.5
20260507020619 66 228 1.7 1.7 0.00 0.13 0.13 93 1010.4
20260507020115 66 180 0.0 0.9 0.00 0.13 0.13 93 1010.5
20260507015614 66 180 0.0 0.0 0.00 0.13 0.13 93 1010.6
20260507015111 66 194 0.0 0.9 0.00 0.13 0.13 93 1010.7
20260507014607 66 257 0.0 0.9 0.00 0.13 0.13 93 1010.7
20260507014103 66 209 0.0 1.7 0.00 0.13 0.13 93 1010.5
20260507013600 66 23 0.0 0.9 0.00 0.13 0.13 93 1010.5
20260507013057 66 254 0.0 0.9 0.00 0.13 0.13 93 1010.5
20260507012554 66 246 0.0 0.9 0.00 0.13 0.13 93 1010.1
20260507012050 66 151 0.0 0.0 0.00 0.13 0.13 92 1010.3
20260507011548 66 157 0.0 0.9 0.00 0.13 0.13 92 1010.7
20260507011044 66 186 0.9 1.7 0.00 0.13 0.13 91 1010.4
20260507010538 66 216 1.7 1.7 0.00 0.13 0.13 91 1010.4
20260507010035 67 180 0.0 0.0 0.00 0.13 0.13 90 1010.3
20260507005533 67 114 0.9 0.9 0.00 0.13 0.13 89 1010.4
20260507005028 68 120 0.0 1.7 0.00 0.13 0.13 88 1010.5
20260507004526 67 180 0.0 0.9 0.00 0.13 0.13 88 1010.5
20260507004023 68 180 0.0 1.7 0.00 0.13 0.13 87 1010.5
20260507003519 68 206 0.9 0.9 0.00 0.13 0.13 87 1010.5
20260507003014 68 220 0.0 1.7 0.00 0.13 0.13 86 1010.5
20260507002510 69 250 1.7 4.3 0.00 0.13 0.13 85 1010.3
20260507002007 69 283 4.3 4.3 0.00 0.13 0.13 85 1010.4
20260507001503 69 233 1.7 2.6 0.00 0.13 0.13 85 1010.7
20260507001001 69 187 0.0 1.7 0.00 0.13 0.13 85 1010.7
20260507000456 69 210 1.7 2.6 0.00 0.13 0.13 84 1010.5
20260506235952 70 246 0.0 1.7 0.00 0.13 0.13 83 1010.3
20260506235450 70 262 0.0 2.6 0.00 0.13 0.13 82 1010.2
20260506234946 70 234 0.9 1.7 0.00 0.13 0.13 83 1010.1
20260506234443 70 235 1.7 2.6 0.00 0.13 0.13 82 1010.1
20260506233941 70 251 0.0 1.7 0.00 0.13 0.13 83 1010.0
20260506233437 70 206 0.9 1.7 0.00 0.13 0.13 82 1009.9
20260506232934 71 203 0.9 4.3 0.00 0.13 0.13 81 1010.1
20260506232430 71 180 0.0 1.7 0.00 0.13 0.13 81 1010.5
20260506231926 71 263 0.0 1.7 0.00 0.13 0.13 79 1010.1
20260506231423 72 246 0.0 1.7 0.00 0.13 0.13 78 1010.1
20260506230920 72 287 3.5 3.5 0.00 0.13 0.13 77 1010.2
20260506230417 73 192 0.0 1.7 0.00 0.13 0.13 77 1010.2
20260506225913 73 270 1.7 2.6 0.00 0.13 0.13 75 1010.0
20260506225411 72 0 0.9 3.5 0.00 0.13 0.13 77 1010.2
20260506224908 71 258 1.7 5.2 0.00 0.13 0.13 77 1010.1
20260506224405 71 325 0.0 4.3 0.00 0.13 0.13 78 1010.1
20260506223901 71 209 0.0 1.7 0.00 0.13 0.13 77 1010.2
20260506223356 71 198 1.7 3.5 0.00 0.13 0.13 77 1010.1
20260506222854 71 305 5.2 7.8 0.00 0.13 0.13 76 1010.1
20260506222350 72 0 0.0 2.6 0.00 0.13 0.13 76 1009.9
20260506221848 71 276 0.0 4.3 0.00 0.13 0.13 76 1010.2
20260506221345 72 330 1.7 7.0 0.00 0.13 0.13 76 1010.3
20260506220842 72 244 2.6 7.0 0.00 0.13 0.13 76 1010.0
20260506220337 72 270 0.0 2.6 0.00 0.13 0.13 76 1010.0
20260506215835 72 331 0.0 5.2 0.00 0.13 0.13 76 1010.1
20260506215330 72 198 0.9 5.2 0.00 0.13 0.13 77 1010.0
20260506214826 72 236 3.5 6.1 0.00 0.13 0.13 76 1010.2
20260506214323 72 247 1.7 5.2 0.00 0.13 0.13 77 1010.4
20260506213822 73 263 0.0 2.6 0.00 0.13 0.13 78 1010.5
20260506213319 72 301 1.7 4.3 0.00 0.13 0.13 77 1010.7
20260506212816 72 246 2.6 13.0 0.00 0.13 0.13 77 1010.6
20260506212311 73 263 2.6 2.6 0.00 0.13 0.13 78 1010.4
20260506211806 73 243 0.0 2.6 0.00 0.13 0.13 78 1010.4
20260506211303 72 237 1.7 4.3 0.00 0.13 0.13 78 1010.3
20260506210801 72 307 1.7 3.5 0.00 0.13 0.13 79 1009.9
20260506210257 72 199 1.7 2.6 0.00 0.13 0.13 80 1010.0
20260506205754 72 285 1.7 4.3 0.00 0.13 0.13 79 1010.2
20260506205250 72 240 0.0 1.7 0.00 0.13 0.13 82 1010.3
20260506204747 71 191 0.0 3.5 0.00 0.13 0.13 82 1010.3
20260506204244 71 261 0.0 1.7 0.00 0.13 0.13 83 1010.1
20260506203742 70 270 0.9 4.3 0.00 0.13 0.13 83 1010.2
20260506203239 70 16 1.7 1.7 0.00 0.13 0.13 85 1010.4
20260506202736 70 251 0.0 4.3 0.00 0.13 0.13 84 1010.1
20260506202233 70 206 0.0 6.1 0.00 0.13 0.13 84 1010.2
20260506201730 70 233 1.7 1.7 0.00 0.13 0.13 84 1010.1
20260506201226 70 229 0.0 2.6 0.00 0.13 0.13 87 1010.1
20260506200723 69 261 0.0 1.7 0.00 0.13 0.13 86 1009.9
20260506200220 69 209 0.9 0.9 0.00 0.13 0.13 87 1009.7
20260506195716 69 209 1.7 3.5 0.00 0.13 0.13 88 1009.7
20260506195212 69 216 1.7 2.6 0.00 0.13 0.13 88 1009.5
20260506194705 69 85 1.7 1.7 0.00 0.13 0.13 88 1009.7
20260506194201 68 261 0.0 4.3 0.00 0.13 0.13 89 1009.7
20260506193658 68 357 2.6 2.6 0.00 0.13 0.13 91 1010.1
20260506193155 68 215 0.9 2.6 0.00 0.13 0.13 90 1010.2
20260506192652 68 180 0.9 3.5 0.00 0.13 0.13 90 1010.1
20260506192148 67 319 0.0 3.5 0.00 0.13 0.13 90 1010.6
20260506191645 67 175 0.0 2.6 0.00 0.13 0.13 92 1010.6
20260506191141 67 251 1.7 2.6 0.00 0.13 0.13 92 1010.7
20260506190639 67 180 0.0 2.6 0.00 0.13 0.13 91 1010.7
20260506190135 67 210 1.7 1.7 0.02 0.13 0.13 92 1010.7
20260506185633 66 245 1.7 2.6 0.02 0.13 0.13 91 1010.9
20260506185129 66 323 0.0 1.7 0.02 0.13 0.13 91 1010.9
20260506184626 66 209 0.0 11.3 0.02 0.13 0.13 90 1010.6
20260506184123 66 270 0.0 3.5 0.00 0.12 0.12 90 1010.9
20260506183620 66 140 2.6 3.5 0.00 0.12 0.12 90 1011.2
20260506183116 66 248 1.7 3.5 0.00 0.12 0.12 90 1011.2
20260506182614 67 352 0.0 3.5 0.00 0.12 0.12 90 1011.5
20260506182110 67 204 1.7 4.3 0.00 0.12 0.12 89 1011.7
20260506181608 66 261 5.2 11.3 0.00 0.12 0.12 88 1011.5
20260506181105 66 341 0.0 6.1 0.00 0.12 0.12 89 1011.5
20260506180602 66 270 1.7 7.8 0.00 0.12 0.12 90 1011.9
20260506180059 67 270 4.3 9.6 0.02 0.12 0.12 89 1011.7
20260506175554 66 173 0.0 5.2 0.02 0.12 0.12 88 1011.6
20260506175051 67 211 2.6 3.5 0.00 0.12 0.12 89 1011.6
20260506174550 67 297 0.9 4.3 0.00 0.12 0.12 87 1011.6
20260506174046 67 267 2.6 4.3 0.00 0.12 0.12 87 1011.8
20260506173544 66 29 0.9 6.1 0.00 0.12 0.12 87 1011.6
20260506173040 66 237 2.6 4.3 0.00 0.12 0.12 87 1011.8
20260506172538 66 246 0.0 3.5 0.00 0.12 0.12 89 1011.8
20260506172034 66 270 1.7 4.3 0.00 0.12 0.12 88 1011.5
20260506171531 66 29 3.5 4.3 0.00 0.12 0.12 89 1011.9
20260506171028 66 20 0.9 9.6 0.00 0.12 0.12 89 1011.9
20260506170526 65 228 1.7 4.3 0.00 0.12 0.12 89 1012.1
20260506170018 65 190 3.5 4.3 0.00 0.12 0.12 90 1012.0
20260506165516 66 249 2.6 3.5 0.00 0.12 0.12 91 1011.7
20260506165012 65 165 0.0 2.6 0.00 0.12 0.12 91 1012.0
20260506164509 65 262 0.0 2.6 0.00 0.12 0.12 90 1012.1
20260506164006 65 331 0.9 5.2 0.00 0.12 0.12 90 1012.0
20260506163502 65 123 1.7 2.6 0.00 0.12 0.12 92 1012.1
20260506162956 64 198 0.0 4.3 0.00 0.12 0.12 92 1011.9
20260506162454 64 205 0.0 7.8 0.00 0.12 0.12 93 1011.9
20260506161951 64 206 0.0 2.6 0.00 0.12 0.12 93 1012.2
20260506161449 63 169 1.7 4.3 0.00 0.12 0.12 94 1011.7
20260506160946 63 156 5.2 5.2 0.00 0.12 0.12 94 1011.8